Tolar, TX

10:18 AM CDT on August 27, 2016 (GMT -0500)
Granbury

Weather History for KGDJ - March, 2013

Change the Weather History Date:

Monday, March 25, 2013

  Actual Average (KSEP) Record (KSEP)
Temperature  
Mean Temperature 42 °F -  
Max Temperature 55 °F 67 °F 89 °F (1925)
Min Temperature 29 °F 45 °F 29 °F (1974)
Degree Days  
Heating Degree Days 23    
Moisture  
Dew Point 21 °F    
Average Humidity 46    
Maximum Humidity 76    
Minimum Humidity 22    
Precipitation  
Precipitation 0.00 in - - ()
Sea Level Pressure  
Sea Level Pressure 30.34 in    
Wind  
Wind Speed 7 mph (NW)    
Max Wind Speed 18 mph    
Max Gust Speed 24 mph    
Visibility 10 miles    
Events      
Averages and records for this station are not official NWS values.
T = Trace of Precipitation, MM = Missing Value Source: NWS Daily Summary

Daily Weather History Graph

Daily Weather History Graph

Search for Another Location

Airport or City:

Trip Planner

Search our weather history database for the weather conditions in past years. The results will help you decide how hot, cold, wet, or windy it might be!

Date:

Astronomy

Mar. 25, 2013 Rise Set
Actual Time 7:28 AM CDT 7:46 PM CDT
Civil Twilight 7:03 AM CDT 8:11 PM CDT
Nautical Twilight 6:34 AM CDT 8:39 PM CDT
Astronomical Twilight 6:05 AM CDT 9:09 PM CDT
Moon 6:22 PM CDT (3/25) 6:07 AM CDT (3/25)
Length of Visible Light 13h 07m
Length of Day
12h 18m
Waxing Gibbous, 96% of the Moon is Illuminated
Mar 25
Waxing Gibbous
Mar 27
Full
Apr 2
Last Quarter
Apr 10
New
Apr 18
First Quarter

Hourly Weather History & Observations

Time (CDT) Temp. Windchill Dew Point Humidity Pressure Visibility Wind Dir Wind Speed Gust Speed Precip Events Conditions
12:15 AM 38.3 °F 34.8 °F 23.0 °F 54% 30.21 in 10.0 mi NNW 4.6 mph - N/A   Clear
12:35 AM 37.0 °F 33.3 °F 23.7 °F 59% 30.23 in 10.0 mi NW 4.6 mph - N/A   Clear
12:55 AM 36.9 °F 30.7 °F 23.5 °F 59% 30.23 in 10.0 mi NNW 8.1 mph - N/A   Clear
1:15 AM 36.9 °F 30.1 °F 23.4 °F 58% 30.24 in 10.0 mi NNW 9.2 mph - N/A   Clear
1:35 AM 36.5 °F 31.0 °F 23.7 °F 60% 30.25 in 10.0 mi NNW 6.9 mph - N/A   Clear
1:55 AM 36.1 °F 32.3 °F 23.7 °F 61% 30.26 in 10.0 mi NW 4.6 mph - N/A   Clear
2:15 AM 34.7 °F 31.8 °F 22.6 °F 61% 30.27 in 10.0 mi WSW 3.5 mph - N/A   Clear
2:35 AM 34.7 °F 30.6 °F 22.5 °F 61% 30.28 in 10.0 mi West 4.6 mph - N/A   Clear
2:55 AM 33.6 °F 29.4 °F 22.8 °F 65% 30.28 in 10.0 mi West 4.6 mph - N/A   Clear
3:35 AM 31.3 °F 26.6 °F 23.5 °F 73% 30.28 in 10.0 mi West 4.6 mph - N/A   Clear
3:55 AM 32.0 °F - 23.4 °F 70% 30.28 in 10.0 mi Calm Calm - N/A   Clear
4:15 AM 32.2 °F 27.7 °F 22.3 °F 67% 30.29 in 10.0 mi WSW 4.6 mph - N/A   Clear
4:35 AM 32.0 °F 27.5 °F 22.6 °F 68% 30.30 in 10.0 mi WSW 4.6 mph - N/A   Clear
4:55 AM 32.0 °F 27.5 °F 22.6 °F 68% 30.30 in 10.0 mi WSW 4.6 mph - N/A   Clear
5:15 AM 31.5 °F 26.8 °F 22.6 °F 70% 30.31 in 10.0 mi West 4.6 mph - N/A   Clear
5:35 AM 30.7 °F 24.9 °F 23.2 °F 74% 30.32 in 10.0 mi West 5.8 mph - N/A   Clear
5:55 AM 30.6 °F 23.8 °F 23.0 °F 74% 30.32 in 10.0 mi WSW 6.9 mph - N/A   Clear
6:15 AM 31.5 °F 24.9 °F 23.2 °F 71% 30.32 in 10.0 mi WSW 6.9 mph - N/A   Clear
6:55 AM 30.0 °F 24.1 °F 22.8 °F 75% 30.33 in 10.0 mi WSW 5.8 mph - N/A   Clear
7:15 AM 29.5 °F 23.4 °F 22.6 °F 76% 30.35 in 10.0 mi WSW 5.8 mph - N/A   Clear
7:35 AM 30.2 °F 24.3 °F 23.2 °F 75% 30.35 in 10.0 mi SW 5.8 mph - N/A   Clear
7:55 AM 30.9 °F 26.2 °F 23.5 °F 74% 30.37 in 10.0 mi West 4.6 mph - N/A   Clear
8:15 AM 31.6 °F - 24.6 °F 75% 30.37 in 10.0 mi Calm Calm - N/A   Clear
8:35 AM 32.2 °F 28.9 °F 25.0 °F 75% 30.38 in 10.0 mi NW 3.5 mph - N/A   Clear
8:55 AM 35.6 °F 31.7 °F 25.7 °F 67% 30.39 in 10.0 mi WNW 4.6 mph - N/A   Clear
9:15 AM 38.3 °F 33.9 °F 25.5 °F 60% 30.40 in 10.0 mi NW 5.8 mph - N/A   Clear
9:35 AM 40.5 °F 35.8 °F 25.2 °F 54% 30.40 in 10.0 mi NW 6.9 mph - N/A   Clear
9:55 AM 42.3 °F 36.8 °F 23.7 °F 48% 30.39 in 10.0 mi NNW 9.2 mph - N/A   Clear
10:15 AM 43.7 °F 39.1 °F 23.2 °F 44% 30.40 in 10.0 mi North 8.1 mph - N/A   Clear
10:35 AM 44.4 °F 39.0 °F 23.0 °F 43% 30.40 in 10.0 mi NNW 10.4 mph 17.3 mph N/A   Clear
10:55 AM 45.1 °F 40.8 °F 22.6 °F 41% 30.41 in 10.0 mi NNW 8.1 mph - N/A   Clear
11:15 AM 47.5 °F - 22.5 °F 37% 30.40 in 10.0 mi NNW 12.7 mph - N/A   Clear
11:35 AM 48.4 °F - 21.9 °F 35% 30.40 in 10.0 mi North 11.5 mph 17.3 mph N/A   Clear
11:55 AM 49.1 °F - 21.9 °F 34% 30.40 in 10.0 mi NW 10.4 mph 17.3 mph N/A   Clear
12:15 PM 49.6 °F - 22.1 °F 34% 30.40 in 10.0 mi North 11.5 mph 17.3 mph N/A   Clear
12:35 PM 50.5 °F - 23.2 °F 34% 30.39 in 10.0 mi North 10.4 mph 19.6 mph N/A   Clear
12:55 PM 50.7 °F - 22.5 °F 33% 30.39 in 10.0 mi NNW 10.4 mph - N/A   Clear
1:15 PM 51.8 °F - 21.9 °F 31% 30.38 in 10.0 mi NW 10.4 mph 18.4 mph N/A   Clear
1:35 PM 51.8 °F - 22.1 °F 31% 30.37 in 10.0 mi NNW 12.7 mph 19.6 mph N/A   Clear
1:55 PM 52.5 °F - 22.3 °F 31% 30.36 in 10.0 mi NW 10.4 mph 24.2 mph N/A   Clear
2:15 PM 53.4 °F - 20.8 °F 28% 30.35 in 10.0 mi NW 15.0 mph 18.4 mph N/A   Clear
2:35 PM 53.2 °F - 20.5 °F 28% 30.34 in 10.0 mi North 15.0 mph 19.6 mph N/A   Clear
2:55 PM 53.6 °F - 20.5 °F 27% 30.34 in 10.0 mi NNW 16.1 mph 21.9 mph N/A   Clear
3:15 PM 54.1 °F - 21.4 °F 28% 30.33 in 10.0 mi NW 13.8 mph 20.7 mph N/A   Clear
3:35 PM 54.3 °F - 20.5 °F 27% 30.33 in 10.0 mi NW 13.8 mph 21.9 mph N/A   Clear
3:55 PM 54.9 °F - 20.3 °F 26% 30.32 in 10.0 mi NNW 18.4 mph 23.0 mph N/A   Clear
4:15 PM 54.3 °F - 18.5 °F 25% 30.31 in 10.0 mi NNW 12.7 mph 19.6 mph N/A   Clear
4:35 PM 55.0 °F - 18.0 °F 23% 30.31 in 10.0 mi NNW 12.7 mph 24.2 mph N/A   Clear
4:55 PM 55.4 °F - 18.1 °F 23% 30.30 in 10.0 mi NNW 15.0 mph 21.9 mph N/A   Clear
5:15 PM 54.9 °F - 16.9 °F 22% 30.30 in 10.0 mi NW 11.5 mph 20.7 mph N/A   Clear
5:35 PM 55.0 °F - 16.5 °F 22% 30.31 in 10.0 mi NW 15.0 mph 21.9 mph N/A   Clear
5:55 PM 54.5 °F - 16.3 °F 22% 30.30 in 10.0 mi North 11.5 mph 17.3 mph N/A   Clear
6:15 PM 54.1 °F - 16.0 °F 22% 30.31 in 10.0 mi NW 13.8 mph - N/A   Clear
6:35 PM 53.6 °F - 15.1 °F 22% 30.31 in 10.0 mi NNW 12.7 mph 17.3 mph N/A   Clear
6:55 PM 53.1 °F - 16.7 °F 24% 30.32 in 10.0 mi NNW 11.5 mph - N/A   Clear
7:15 PM 52.0 °F - 15.8 °F 24% 30.33 in 10.0 mi NW 9.2 mph - N/A   Clear
7:35 PM 50.7 °F - 16.2 °F 25% 30.34 in 10.0 mi NW 9.2 mph - N/A   Clear
7:55 PM 49.1 °F - 17.1 °F 28% 30.34 in 10.0 mi NNW 9.2 mph - N/A   Clear
8:15 PM 48.4 °F - 17.6 °F 29% 30.35 in 10.0 mi NNW 6.9 mph - N/A   Clear
8:35 PM 47.1 °F - 18.7 °F 32% 30.36 in 10.0 mi NNW 6.9 mph - N/A   Clear
8:55 PM 46.0 °F 43.1 °F 19.4 °F 35% 30.37 in 10.0 mi NNW 5.8 mph - N/A   Clear
9:15 PM 44.4 °F 42.0 °F 20.8 °F 39% 30.39 in 10.0 mi NNW 4.6 mph - N/A   Clear
9:35 PM 44.1 °F - 20.8 °F 40% 30.39 in 10.0 mi Calm Calm - N/A   Clear
9:55 PM 43.3 °F - 19.9 °F 39% 30.40 in 10.0 mi Calm Calm - N/A   Clear
10:15 PM 41.7 °F - 23.5 °F 49% 30.41 in 10.0 mi Calm Calm - N/A   Clear
10:35 PM 41.5 °F - 22.8 °F 47% 30.42 in 10.0 mi Calm Calm - N/A   Clear
10:55 PM 41.5 °F - 21.7 °F 45% 30.43 in 10.0 mi Calm Calm - N/A   Clear
11:15 PM 40.1 °F 38.0 °F 23.5 °F 52% 30.43 in 10.0 mi NNW 3.5 mph - N/A   Clear
11:35 PM 39.6 °F - 21.7 °F 49% 30.43 in 10.0 mi Calm Calm - N/A   Clear
11:55 PM 38.7 °F 36.3 °F 21.6 °F 50% 30.43 in 10.0 mi NW 3.5 mph - N/A   Clear